JCSAT-14

Last updated on Sun Feb 23 2020 00:02:05 GMT+0000 (Coordinated Universal Time)

1 45245U 20013A 20051.78385154 -.00000178 00000-0 00000+0 0 9991 2 45245 5.7427 311.3133 6778755 178.7926 47.3473 2.18720371 40
UTC large
Height (km)
Speed (km/s)
/
Latitude / Longitude
Inclination (degrees)
Orbital Period (minutes)
Azimuth
Elevation
Range (km)
Doppler Factor

Next 0 passes for location: London (51.5072 / 0.1276)

Sorry there are no passes over London.